STARLINK-2478, 48135

Orbit data source: Space-Track

STARLINK-2478, 48135 is a payload satellite owned by SpaceX/Seattle (US) in LEO that was launched on Wed, 07 Apr 2021 UTC via an FALCON 9 launch vehicle from the Air Force Eastern Test Range (AFETR). Payload-class satellites include a variety of spacecraft equipped with specific instruments for various scientific and technological missions. These include communications satellites like Starlink; space stations such as the ISS; scientific satellites like the Hubble; Earth observation satellites from companies like Planet Labs, Umbra, and HawkEye 360; GPS; miniature CubeSats for education and research; and military/defense satellites.

Loading next visibility...
Identifier
48135, 2021-027AV
Orbit
LEO
Country
Flag of USUS
Related business
Manufacturer
SpaceX/Seattle
Mission
Operational Commercial Communications
Bus & Motor
STARLINK, Unknown motor
Mass
260 kg wet, ~248 kg dry
Launch date (UTC)
2021-04-07 (5 years ago)
Launch vehicle
FALCON 9
Launch site
Air Force Eastern Test Range (AFETR)
Object type
Payload
Rocket body
Debris
Shape & HBR
Box + 1 Pan, 10.1 m
Radar Cross Section
13.562 m², Large (>1 m²)

Expand to show TLE details & history
Last TLE update: 2 days ago

TLE from 2 days ago
0 STARLINK-2478
1 48135U 21027AV  26170.94975778  .00000244  00000-0  19613-4 0  9999
2 48135  53.1604  52.2249 0001266  84.1604 275.9541 15.31702446288143
Epoch: 2026-06-19T22:47Z
TLE epoch observation values (Epoch: 2026-06-19T22:47:39.072Z)
Latitude
-0.00006°
Longitude
162.14066°
Altitude
471.543 km
Speed
7.632 km/s
True Right ascension
03h 28m 53s
True Declination
0° 00' 00"
Sunlit
Object was in daylight at epoch
Visualization orbit readout
Latitude
Unknown
Longitude
Unknown
Altitude
Unknown
Speed
Unknown
Apparent Right ascension
Unknown
Apparent Declination
Unknown
Sunlit
N/A
Visualization observer readout
Local Sidereal Time
21:30:13
Azimuth
Unknown
Elevation
Unknown
Doppler factor
Unknown
Orbital elements
Apogee altitude
471.856 km
Perigee altitude
470.122 km
Semi-major axis
6,849.126 km
Eccentricity
0.00013
Inclination
53.1604°
RAAN
52.2249°
Arg. of periapsis
84.1604°
True anomaly
275.93967°
Mean anomaly
275.9541°
Eccentric anomaly
275.94689°
Mean motion
3.82904 °/min
Orbital period
94.02 mins
BSTAR
0.000019613
Loading maneuver chart data...
Computing Atmospheric mass density...
Loading historical data...
Loading historical data...
Loading historical data...
Loading historical data...
Loading historical data...
Loading historical data...
Loading historical data...

Documentation

Showing up to 5 results
|